Location: G�kdere
(37.0328°N, 30.9000°E)
Time: 04:07:05
(UTC+00:00)

ERS-2 - Pass Details

Date: 03 March 2021
Orbit: 492 x 496 km, 98.6° (Epoch: 20 April)

Event Time Altitude Azimuth Distance (km) Brightness Sun altitude
Rises 16:49:28 0° 10° (N) 2,590 5.7 -12.2°
Reaches altitude 10° 16:51:33 10° 9° (N) 1,703 4.8 -12.6°
Maximum altitude 16:55:11 71° 285° (WNW) 528 2.4 -13.3°
Drops below altitude 10° 16:58:49 10° 201° (SSW) 1,691 5.0 -14.0°
Sets 17:00:52 0° 199° (SSW) 2,569 6.0 -14.4°
